COSMOS 1750

Satellite information

Favourite Embed

Satellite Type and Status

PAYLOADIN ORBIT

Key statistics

Satellite COSMOS 1750 at a glance.

Uptime

14339

Days in orbit

Revolutions

≈ 12.6

Per day

Orbit

LEO

Low Earth Orbit

Inclination

74.0

Latest

Satellite identification and parameters

Extended collection of information and parameters for COSMOS 1750.

Object identification

Identified? True

Debris? False

Object name: COSMOS 1750

International designator: 1986-042C

Object number (NORAD): 16760

Object ID (CCSDS): 16760

Country: COMMONWEALTH OF INDEPENDENT STATES (CIS)

Current information (Y/N): Y

RCS size: MEDIUM

Orbital parameters

Period: 114.635 minutes

Inclination: 74.0164 deg

SMA: 7816.967 km

Apoapsis: 1470.156 km

Periapsis: 1407.508 km

RAAN: 117.2987 deg

Eccentricy: 0.00400717

Argument of periapsis: 288.3509 deg

Mean anomaly: 178.3132 deg

Mean motion: 12.56161151 rev/day

Mean motion (dot): 0.00000014 rev/day2

B* drag term: 0.00018649341 1/REarth

Two-line elements (TLE)

Creation date: Sept. 8, 2025, 3:16 a.m.

Reference frame: TEME

Reference center: EARTH

Epoch: Sept. 7, 2025, 10:21 p.m. UTC

TLE line 0: 0 COSMOS 1750

TLE line 1: 1 16760U 86042C 25250.93132241 .00000014 00000-0 18649-3 0 9995

TLE line 2: 2 16760 74.0164 117.2987 0040072 288.3509 178.3132 12.56161151800166

Live tracking on map

Real-time ground track for satellite COSMOS 1750.

In-orbit conjunctions

There are no conjunctions computed for COSMOS 1750, at the moment. Check back to stay up to date, as we update our databases every day.

Go to all conjunctions

Associated space launch

Military communications satellites

COSMOS 1750 was lifted into orbit during the mission ‘Kosmos-3M | Strela-1M 305-312’, on board a Kosmos-3M space rocket.

The launch took place on June 6, 1986, 3:57 a.m. from 132/1 (132L).

For more information about the launch, click the button.

Launch to space Kosmos-3M | Strela-1M 305-312
Kosmos-3M | Strela-1M 305-312

Agency: N/A

Status: Launch Successful

Launch date: June 6, 1986, 3:57 a.m. UTC

Rocket: Kosmos-3M

Launch pad: 132/1 (132L)

Location: Plesetsk Cosmodrome, Russian Federation

...

Latest news about this satellite

There are no fresh news available about this satellite. Check back as we update our databases every day.


Newsletter sign-up

Weekly statistics, charts and insights to help you stay on top of the space industry.